Flag for France Weather past 2 weeks in Aix-en-Provence, France

Now
54 °F

Clear.


Feels Like: 54 °F
Forecast: 46 / 71 °F
Wind: 2 mph from Southeast

Location: Marseille / Marignane

Current Time: Apr 20, 2015 at 3:39:44 AM

Latest Report: Apr 20, 2015 at 3:00 AM


Visibility: N/A

Pressure: 30.09 "Hg

Humidity: 88%

Dew point: 50 °F

Location of Aix-en-ProvenceLocation

Historic Weather in Aix-en-Provence — Graph

°F

Aix-en-Provence temperature yesterday

Maximum temperature yesterday: 63 °F (at 12:00 PM)
Minimum temperature yesterday: 54 °F (at 2:30 PM)
Average temperature yesterday: 57 °F

Past Weeks' High & Low Weather Summary

 TemperatureHumidityPressure
High73 °F (Apr 13, 2:30 PM)94% (Apr 12, 1:30 AM)30.45 "Hg (Apr 12, 1:30 AM)
Low37 °F (Apr 10, 6:30 AM)15% (Apr 10, 2:00 PM)29.74 "Hg (Apr 5, 4:30 AM)
Average57 °F62%30.18 "Hg
* Reported Apr 5 2:00 AM — Apr 20 2:30 AM, Aix-en-Provence, Weather by CustomWeather, © 2015

Note: Actual official high and low records may vary slightly from our data, if they occured in-between our weather recording intervals... More about our weather records

Advertising

Aix-en-Provence weather history for previous 24 hours

 ConditionsComfort  
Time TempWeatherWind HumidityBarometerVisibility
2:30 AM
Mon, Apr 20
54 °FClear.2 mph82%30.09 "HgN/A
2:00 AM54 °FClear.2 mph88%30.12 "HgN/A
1:30 AM55 °FClear.No wind72%30.12 "HgN/A
1:00 AM55 °FPassing clouds.5 mph72%30.09 "HgN/A
12:30 AM55 °FPassing clouds.2 mph72%30.09 "HgN/A
12:00 AM55 °FPassing clouds.2 mph77%30.09 "HgN/A
11:30 PM
Sun, Apr 19
55 °FPassing clouds.3 mph77%30.09 "HgN/A
11:00 PM55 °FPassing clouds.5 mph72%30.09 "HgN/A
10:30 PM55 °FPassing clouds.6 mph72%30.07 "HgN/A
10:00 PM55 °FPassing clouds.7 mph72%30.07 "HgN/A
9:30 PM55 °FPassing clouds.5 mph72%30.07 "HgN/A
9:00 PM55 °FPartly sunny.6 mph77%30.04 "HgN/A
8:30 PM55 °FPartly sunny.9 mph72%30.04 "HgN/A
8:00 PM55 °FPartly sunny.8 mph77%30.04 "HgN/A
7:30 PM57 °FBroken clouds.8 mph77%30.01 "HgN/A
7:00 PM57 °FBroken clouds.8 mph77%30.01 "HgN/A
6:30 PM57 °FBroken clouds.9 mph82%30.01 "HgN/A
6:00 PM57 °FBroken clouds.7 mph88%30.01 "HgN/A
5:30 PM57 °FBroken clouds.8 mph88%30.01 "HgN/A
5:00 PM57 °FBroken clouds.5 mph88%30.01 "HgN/A
4:30 PM57 °FLight rain. Broken clouds.2 mph88%30.01 "HgN/A
4:00 PM55 °FLight rain. Broken clouds.9 mph94%30.01 "HgN/A
3:30 PM54 °FLight rain. Broken clouds.10 mph94%30.01 "HgN/A
3:00 PM54 °FRain. Partly sunny.12 mph94%30.01 "Hg5 mi
2:30 PM54 °FRain. Broken clouds.13 mph94%30.01 "Hg2 mi
2:00 PM55 °FLight rain. Broken clouds.18 mph88%30.01 "HgN/A
1:30 PM57 °FLight rain. Partly sunny.16 mph72%29.98 "HgN/A
1:00 PM59 °FPartly sunny.18 mph63%29.98 "HgN/A
12:30 PM61 °FBroken clouds.24 mph59%29.95 "HgN/A
12:00 PM63 °FPartly sunny.23 mph56%29.95 "HgN/A
11:30 AM61 °FPartly sunny.20 mph63%29.95 "HgN/A
11:00 AM61 °FBroken clouds.12 mph72%29.92 "HgN/A
10:30 AM61 °FBroken clouds.14 mph72%29.92 "HgN/A
10:00 AM61 °FBroken clouds.13 mph72%29.92 "HgN/A
9:30 AM61 °FBroken clouds.6 mph77%29.92 "HgN/A
9:00 AM61 °FLight rain. Partly sunny.6 mph77%29.92 "HgN/A
8:30 AM59 °FPartly sunny.3 mph82%29.92 "HgN/A
8:00 AM59 °FSunny.No wind82%29.92 "Hg10 mi
7:30 AM57 °FClear.3 mph82%29.89 "Hg10 mi
7:00 AM57 °FClear.5 mph82%29.89 "Hg10 mi
6:30 AM57 °FClear.2 mph82%29.89 "Hg10 mi
6:00 AM57 °FClear.5 mph82%29.89 "Hg10 mi
5:30 AM57 °FPassing clouds.6 mph82%29.89 "HgN/A
5:00 AM57 °FPassing clouds.7 mph82%29.89 "HgN/A
4:30 AM59 °FClear.12 mph77%29.89 "HgN/A
4:00 AM57 °FClear.8 mph82%29.92 "HgN/A
3:30 AM59 °FClear.3 mph77%29.92 "HgN/A
3:00 AM57 °FClear.7 mph82%29.92 "HgN/A
Weather by CustomWeather, © 2015

See weather overviewHow to use our weather pages